Showing default

IRIDIUM 82, 25467

Orbit data source: Space-Track

IRIDIUM 82, 25467 is a payload satellite owned by Iridium (US) in LEO that was launched on Tue, 08 Sep 1998 UTC via a DELTA 7920-10C launch vehicle from the Air Force Western Test Range (AFWTR). Payload-class satellites include a variety of spacecraft equipped with specific instruments for various scientific and technological missions. These include communications satellites like Starlink; space stations such as the ISS; scientific satellites like the Hubble; Earth observation satellites from companies like Planet Labs, Umbra, and HawkEye 360; GPS; miniature CubeSats for education and research; and military/defense satellites.

Loading next visibility...
Identifier
25467, 1998-051A
Orbit
LEO
Country
Flag of USUS
Related business
Manufacturer
MOTO/LMMS
Mission
Non-operational Commercial Communications
Bus & Motor
LM700, Unknown motor
Mass
662 kg wet, 556 kg dry
Launch date (UTC)
1998-09-08 (27 years ago)
Launch vehicle
DELTA 7920-10C
Launch site
Air Force Western Test Range (AFWTR)
Object type
Payload
Rocket body
Debris
Shape & HBR
Box + 2 Pan, 4.0 m
Radar Cross Section
5.666 m², Large (>1 m²)

Expand to show TLE details & history
Last TLE update: 18 hours ago

TLE from 18 hours ago
0 IRIDIUM 82
1 25467U 98051A   25308.68334856  .00045197  00000-0  95206-3 0  9999
2 25467  86.3660  40.1963 0069549 120.3628 240.4529 15.42447192445528
Epoch: 2025-11-04T16:24Z
TLE epoch observation values (Epoch: 2025-11-04T16:24:01.315Z)
Latitude
-0.00001°
Longitude
110.02397°
Altitude
465.727 km
Speed
7.62 km/s
True Right ascension
02h 40m 47s
True Declination
0° 00' 00"
Sunlit
Object was in full shadow at epoch
Visualization orbit readout
Latitude
Unknown
Longitude
Unknown
Altitude
Unknown
Speed
Unknown
Apparent Right ascension
Unknown
Apparent Declination
Unknown
Sunlit
N/A
Visualization observer readout
Local Sidereal Time
06:35:37
Azimuth
Unknown
Elevation
Unknown
Doppler factor
Unknown
Orbital elements
Apogee altitude
483.093 km
Perigee altitude
388.314 km
Semi-major axis
6,813.84 km
Eccentricity
0.00695
Inclination
86.366°
RAAN
40.1963°
Arg. of periapsis
120.3628°
True anomaly
239.76255°
Mean anomaly
240.4529°
Eccentric anomaly
240.10743°
Mean motion
3.85883 °/min
Orbital period
93.29 mins
BSTAR
0.00095206
Loading maneuver chart data...
Computing Atmospheric mass density...
Loading historical data...
Loading historical data...
Loading historical data...
Loading historical data...
Loading historical data...
Loading historical data...
Loading historical data...

Documentation

Showing up to 5 results
|